When you browse on this site, cookies collect data to enhance your experience and personalize the content and advertising you see.
Visit our Privacy Policy to learn more. By continuing to use the site, you agree to this use of cookies and data.
  • In Lithuania
  • List of Countries
  • For 7 days
  • Water Temperature
  • Satellite Maps
  • Weather Map
  • Weather Widgets
  • user-avatar
    Login

    Hourly Weather Sankt Polten

    Today, 24 June, Monday

    Time Temperature Precipitation Wind Pressure Humidity
    00:00 +19°C° 0.1 mm 1 mps 739 mmHg 94%
    01:00 +19°C° 0 mm 1 mps 739 mmHg 94%
    02:00 +18°C° 0 mm 1 mps 739 mmHg 94%
    03:00 +16°C° 0 mm 1 mps 739 mmHg 94%
    04:00 +16°C° 0 mm 1 mps 739 mmHg 94%
    05:00 +18°C° 0 mm 1 mps 739 mmHg 91%
    06:00 +19°C° 0 mm 1 mps 740 mmHg 88%
    07:00 +19°C° 0 mm 0 mps 740 mmHg 85%
    08:00 +23°C° 0 mm 1 mps 740 mmHg 78%
    09:00 +24°C° 0 mm 1 mps 740 mmHg 70%
    10:00 +26°C° 0 mm 2 mps 740 mmHg 63%
    11:00 +26°C° 0.1 mm 2 mps 740 mmHg 64%
    12:00 +27°C° 0.1 mm 3 mps 740 mmHg 64%
    13:00 +27°C° 0.1 mm 4 mps 740 mmHg 65%
    14:00 +27°C° 0.2 mm 3 mps 740 mmHg 66%
    15:00 +27°C° 0.2 mm 3 mps 740 mmHg 67%
    16:00 +27°C° 0.2 mm 3 mps 739 mmHg 68%
    17:00 +26°C° 0.1 mm 3 mps 740 mmHg 74%
    18:00 +25°C° 0.1 mm 2 mps 740 mmHg 79%
    19:00 +24°C° 0.1 mm 1 mps 740 mmHg 85%
    20:00 +23°C° 0 mm 1 mps 740 mmHg 88%
    21:00 +22°C° 0 mm 1 mps 740 mmHg 91%
    22:00 +20°C° 0 mm 1 mps 741 mmHg 93%
    23:00 +20°C° 0 mm 1 mps 741 mmHg 94%

    Tomorrow, 25 June, Tuesday

    Time Temperature Precipitation Wind Pressure Humidity
    00:00 +19°C° 0 mm 1 mps 741 mmHg 94%
    01:00 +19°C° 0 mm 1 mps 741 mmHg 94%
    02:00 +19°C° 0 mm 1 mps 741 mmHg 94%
    03:00 +18°C° 0 mm 1 mps 741 mmHg 95%
    04:00 +18°C° 0 mm 1 mps 740 mmHg 96%
    05:00 +20°C° 0 mm 1 mps 741 mmHg 91%
    06:00 +21°C° 0 mm 1 mps 741 mmHg 87%
    07:00 +23°C° 0 mm 1 mps 741 mmHg 82%
    08:00 +25°C° 0 mm 2 mps 741 mmHg 74%
    09:00 +27°C° 0 mm 2 mps 741 mmHg 67%
    10:00 +29°C° 0 mm 3 mps 742 mmHg 59%
    11:00 +30°C° 0 mm 3 mps 742 mmHg 56%
    12:00 +31°C° 0 mm 3 mps 742 mmHg 53%
    13:00 +34°C° 0 mm 4 mps 742 mmHg 50%
    14:00 +33°C° 0 mm 4 mps 741 mmHg 51%
    15:00 +33°C° 0 mm 3 mps 741 mmHg 53%
    16:00 +33°C° 0 mm 3 mps 741 mmHg 54%
    17:00 +31°C° 0 mm 3 mps 741 mmHg 61%
    18:00 +29°C° 0 mm 3 mps 741 mmHg 68%
    19:00 +28°C° 0 mm 2 mps 741 mmHg 76%
    20:00 +26°C° 0 mm 2 mps 742 mmHg 79%
    21:00 +25°C° 0 mm 2 mps 742 mmHg 83%
    22:00 +23°C° 0 mm 1 mps 742 mmHg 87%
    23:00 +23°C° 0 mm 1 mps 742 mmHg 89%

    Day after tomorrow, 26 June, Wednesday

    Time Temperature Precipitation Wind Pressure Humidity
    00:00 +22°C° 0 mm 1 mps 742 mmHg 91%
    01:00 +22°C° 0 mm 1 mps 742 mmHg 92%
    02:00 +21°C° 0 mm 1 mps 742 mmHg 93%
    03:00 +21°C° 0 mm 1 mps 742 mmHg 93%
    04:00 +21°C° 0 mm 1 mps 742 mmHg 93%
    05:00 +21°C° 0 mm 0 mps 742 mmHg 88%
    06:00 +23°C° 0 mm 0 mps 742 mmHg 82%
    07:00 +24°C° 0 mm 0 mps 743 mmHg 77%
    08:00 +26°C° 0 mm 0 mps 742 mmHg 70%
    09:00 +30°C° 0 mm 1 mps 742 mmHg 64%
    10:00 +32°C° 0 mm 1 mps 742 mmHg 58%
    11:00 +33°C° 0 mm 1 mps 742 mmHg 54%
    12:00 +34°C° 0 mm 1 mps 742 mmHg 51%
    13:00 +35°C° 0 mm 1 mps 742 mmHg 47%
    14:00 +34°C° 0 mm 1 mps 742 mmHg 46%
    15:00 +34°C° 0 mm 1 mps 741 mmHg 46%
    16:00 +34°C° 0 mm 1 mps 741 mmHg 45%
    17:00 +33°C° 0 mm 1 mps 741 mmHg 54%
    18:00 +29°C° 0 mm 0 mps 741 mmHg 63%
    19:00 +27°C° 0 mm 0 mps 740 mmHg 73%
    20:00 +26°C° 0 mm 0 mps 741 mmHg 72%
    21:00 +27°C° 0 mm 1 mps 741 mmHg 72%
    22:00 +25°C° 0 mm 1 mps 741 mmHg 72%
    23:00 +25°C° 0.1 mm 1 mps 741 mmHg 72%

    27 June, Thursday

    Time Temperature Precipitation Wind Pressure Humidity
    00:00 +25°C° 0.1 mm 1 mps 741 mmHg 72%
    01:00 +24°C° 0.1 mm 2 mps 740 mmHg 72%
    02:00 +24°C° 0 mm 2 mps 740 mmHg 73%
    03:00 +23°C° 0 mm 2 mps 740 mmHg 75%
    04:00 +23°C° 0 mm 2 mps 740 mmHg 76%
    05:00 +24°C° 0 mm 2 mps 740 mmHg 75%
    06:00 +26°C° 0 mm 2 mps 739 mmHg 73%
    07:00 +27°C° 0 mm 2 mps 739 mmHg 71%
    08:00 +28°C° 0.2 mm 2 mps 739 mmHg 70%
    09:00 +29°C° 0.2 mm 3 mps 740 mmHg 68%
    10:00 +30°C° 0.2 mm 3 mps 740 mmHg 67%
    11:00 +30°C° 2.1 mm 3 mps 739 mmHg 70%
    12:00 +30°C° 2.1 mm 3 mps 739 mmHg 72%
    13:00 +30°C° 2.1 mm 2 mps 739 mmHg 75%
    14:00 +30°C° 1.2 mm 2 mps 739 mmHg 75%
    15:00 +30°C° 1.2 mm 2 mps 739 mmHg 74%
    16:00 +30°C° 1.2 mm 2 mps 738 mmHg 74%
    17:00 +28°C° 0.2 mm 2 mps 739 mmHg 76%
    18:00 +27°C° 0.2 mm 2 mps 739 mmHg 78%
    19:00 +25°C° 0.2 mm 1 mps 739 mmHg 80%
    20:00 +23°C° 0 mm 1 mps 739 mmHg 78%
    21:00 +22°C° 0 mm 1 mps 739 mmHg 76%
    22:00 +20°C° 0 mm 1 mps 740 mmHg 74%
    23:00 +19°C° 0 mm 1 mps 740 mmHg 73%

    28 June, Friday

    Time Temperature Precipitation Wind Pressure Humidity
    00:00 +18°C° 0 mm 1 mps 740 mmHg 73%
    01:00 +16°C° 0 mm 1 mps 739 mmHg 73%
    02:00 +15°C° 0 mm 1 mps 739 mmHg 74%
    03:00 +15°C° 0 mm 1 mps 739 mmHg 75%
    04:00 +15°C° 0 mm 1 mps 739 mmHg 75%
    05:00 +16°C° 0 mm 1 mps 739 mmHg 72%
    06:00 +19°C° 0 mm 1 mps 739 mmHg 68%
    07:00 +21°C° 0 mm 1 mps 739 mmHg 64%
    08:00 +23°C° 0 mm 1 mps 739 mmHg 57%
    09:00 +24°C° 0 mm 2 mps 739 mmHg 51%
    10:00 +26°C° 0 mm 2 mps 739 mmHg 45%
    11:00 +27°C° 0 mm 2 mps 739 mmHg 43%
    12:00 +28°C° 0 mm 3 mps 739 mmHg 42%
    13:00 +29°C° 0 mm 3 mps 738 mmHg 41%
    14:00 +29°C° 0 mm 3 mps 738 mmHg 42%
    15:00 +29°C° 0 mm 3 mps 738 mmHg 44%
    16:00 +29°C° 0 mm 3 mps 738 mmHg 46%
    17:00 +27°C° 0 mm 3 mps 738 mmHg 54%
    18:00 +25°C° 0 mm 2 mps 738 mmHg 62%
    19:00 +24°C° 0 mm 1 mps 738 mmHg 70%
    20:00 +22°C° 0 mm 1 mps 738 mmHg 73%
    21:00 +20°C° 0 mm 1 mps 739 mmHg 77%
    22:00 +16°C° 0 mm 0 mps 739 mmHg 80%
    23:00 +16°C° 0 mm 0 mps 739 mmHg 80%

    29 June, Saturday

    Time Temperature Precipitation Wind Pressure Humidity
    00:00 +16°C° 0 mm 1 mps 739 mmHg 80%
    01:00 +16°C° 0 mm 1 mps 739 mmHg 80%
    02:00 +15°C° 0 mm 1 mps 739 mmHg 81%
    03:00 +15°C° 0 mm 1 mps 739 mmHg 82%
    04:00 +15°C° 0 mm 1 mps 739 mmHg 83%
    05:00 +16°C° 0 mm 1 mps 739 mmHg 78%
    06:00 +19°C° 0 mm 1 mps 739 mmHg 73%
    07:00 +19°C° 0 mm 0 mps 739 mmHg 68%
    08:00 +22°C° 0 mm 1 mps 739 mmHg 64%
    09:00 +24°C° 0 mm 1 mps 739 mmHg 60%
    10:00 +25°C° 0 mm 2 mps 739 mmHg 55%
    11:00 +26°C° 0 mm 2 mps 739 mmHg 54%
    12:00 +26°C° 0 mm 2 mps 738 mmHg 52%
    13:00 +27°C° 0 mm 2 mps 738 mmHg 50%
    14:00 +27°C° 0 mm 2 mps 738 mmHg 52%
    15:00 +27°C° 0 mm 2 mps 738 mmHg 53%
    16:00 +27°C° 0 mm 2 mps 738 mmHg 55%
    17:00 +25°C° 0 mm 2 mps 738 mmHg 62%
    18:00 +24°C° 0 mm 1 mps 738 mmHg 70%
    19:00 +23°C° 0 mm 1 mps 738 mmHg 77%
    20:00 +21°C° 0 mm 1 mps 738 mmHg 79%
    21:00 +20°C° 0 mm 1 mps 738 mmHg 81%
    22:00 +19°C° 0 mm 1 mps 739 mmHg 83%
    23:00 +18°C° 0 mm 1 mps 739 mmHg 84%
    Show more